Wind_Speed
11 11 11 12 12 14 15 16 17 19 20 20 20 20 20 19 18 18 18 18 18 18 18 17 17 17 16 16 16 16 16 16 16 16 17 17 17 18 18 18 18 19 19
10 10 10 10 10 11 12 13 14 16 18 19 20 21 21 20 20 20 20 20 20 19 19 19 19 19 19 19 18 18 18 18 18 18 18 19 19 19 20 20 20 20 20
9 8 7 7 8 8 8 9 10 12 14 15 17 19 19 20 20 20 20 20 20 20 20 20 20 20 20 20 20 20 19 19 18 18 19 19 20 20 20 21 21 21 22
7 6 6 6 6 6 6 6 7 8 9 11 13 15 16 17 18 19 19 20 20 20 21 21 20 20 20 20 20 20 20 19 18 18 19 20 20 20 21 21 21 20 21
5 4 4 5 5 5 5 5 6 7 7 8 9 11 13 15 16 17 18 18 19 20 20 20 20 19 19 19 20 19 19 18 17 17 18 19 19 19 19 19 20 19 20
4 4 4 4 4 4 4 4 5 5 6 7 8 9 11 12 14 15 16 17 17 18 18 18 17 17 18 18 19 19 19 17 15 16 17 18 18 18 17 17 16 18 19
5 5 4 4 4 4 4 4 5 5 6 6 7 8 9 10 12 13 14 15 15 16 16 17 17 17 17 18 18 19 18 17 15 15 16 18 18 18 18 17 18 19 19
5 5 4 4 4 4 5 5 6 6 6 7 8 9 10 11 12 13 14 15 16 16 17 17 18 18 18 18 19 20 19 18 16 16 18 19 20 19 19 19 19 19 19
7 6 5 4 4 5 5 6 6 6 7 8 9 10 11 12 13 14 15 16 17 17 18 18 18 18 18 18 19 20 21 19 17 18 19 20 20 20 20 19 19 19 19
7 6 5 5 5 5 5 6 6 7 7 8 9 10 12 13 13 14 15 16 17 17 18 18 18 18 18 19 20 21 21 20 18 19 20 20 20 21 21 21 20 20 20
8 7 6 6 5 5 6 6 7 7 8 9 9 10 12 12 13 14 15 16 16 17 17 17 18 18 19 20 21 21 22 21 19 19 20 21 22 22 23 23 23 23 23
9 8 7 7 6 6 6 7 7 8 9 9 10 10 11 12 12 13 14 14 15 16 16 17 17 18 19 20 20 21 22 21 20 20 21 22 23 24 25 26 26 27 27
10 10 9 8 8 7 7 8 8 9 10 10 10 11 11 12 12 13 13 14 15 15 16 16 17 18 19 20 20 21 22 22 22 22 23 24 25 26 27 29 29 29 30
10 11 10 10 10 9 9 9 9 10 10 10 11 12 12 13 14 15 15 15 16 17 17 17 17 19 20 21 22 23 24 25 26 26 27 28 29 30 30 31 32 33 33
11 12 11 12 12 12 12 11 11 12 12 13 13 13 14 16 17 18 18 18 18 19 20 20 20 21 22 24 25 26 28 29 30 32 32 33 34 34 35 36 37 38 39
15 13 13 14 15 14 13 14 14 14 15 16 16 17 17 17 19 20 21 22 22 23 24 24 24 25 26 27 29 30 32 34 36 37 38 39 40 41 42 43 44 45 45
20 17 15 15 17 17 16 16 16 17 17 19 20 20 21 21 22 23 24 25 26 26 27 28 28 29 30 31 32 34 35 38 40 41 43 44 45 46 47 48 49 50 51
24 21 19 20 21 22 23 20 19 20 21 22 23 24 25 25 25 26 28 28 29 29 30 31 32 33 34 35 36 38 39 41 43 45 46 48 49 50 51 51 52 54 55
28 26 25 26 24 26 28 25 25 25 25 26 27 28 29 30 30 30 31 32 32 32 32 33 35 37 38 39 40 42 43 44 46 47 49 50 51 52 54 55 56 57 58
31 29 28 28 29 31 32 32 32 30 29 30 31 31 33 33 34 35 35 34 34 34 34 34 36 39 41 42 43 44 45 46 48 49 50 51 53 54 56 57 58 59 60
33 33 33 32 33 34 36 37 37 36 34 33 34 35 36 37 37 39 39 37 37 35 35 36 37 40 42 44 45 46 47 48 50 51 51 53 55 56 58 59 60 62 63
37 35 35 36 37 36 36 39 40 39 37 37 37 37 38 39 40 40 40 39 37 37 37 37 39 41 44 45 46 47 47 49 51 52 54 56 58 59 60 61 62 63 64
37 35 36 38 39 39 40 42 41 41 40 38 38 38 39 41 41 42 42 41 39 38 39 40 42 43 45 46 48 49 49 50 52 55 58 59 60 61 62 63 63 64 65
36 36 38 40 41 43 44 43 44 41 39 39 39 40 41 42 43 43 43 41 41 41 42 43 44 45 46 48 50 51 53 54 55 57 59 61 62 62 62 63 63 64 65
36 37 39 41 44 45 44 45 43 40 39 39 40 41 41 43 44 44 44 44 44 45 45 46 47 47 48 50 52 54 57 59 60 60 59 60 61 62 63 63 64 65 67
36 39 42 44 46 46 45 44 43 41 40 40 41 42 43 44 45 45 46 46 47 47 47 48 48 49 51 53 55 58 60 61 62 61 60 60 61 62 63 65 66 68 70
Wind_Direction
298 293 287 282 277 272 270 268 265 264 263 264 263 261 259 260 262 265 267 268 269 269 268 268 266 265 263 262 262 262 262 263 264 265 266 267 267 268 268 269 270 272 274
299 297 294 287 282 277 272 269 266 264 264 263 262 261 260 260 262 264 266 268 270 270 269 268 267 266 266 265 265 265 265 265 266 268 269 270 271 273 274 275 276 277 277
296 296 295 292 291 289 281 274 270 266 265 263 261 260 259 260 261 263 265 267 269 269 269 269 268 268 267 266 266 267 267 269 271 273 275 276 276 277 278 279 279 279 277
296 293 294 297 299 294 287 281 277 270 265 262 259 258 258 258 259 261 264 266 267 268 268 269 269 269 268 269 269 269 270 272 275 277 278 278 278 278 280 279 279 280 279
319 311 307 307 303 297 292 288 285 279 271 264 261 259 258 258 259 261 263 264 265 266 267 268 269 270 271 272 272 272 273 274 275 276 277 279 280 279 278 279 278 278 279
357 355 345 335 325 315 310 309 304 297 288 280 274 270 266 263 262 262 264 266 267 268 268 268 269 269 271 272 273 273 274 274 274 273 274 276 277 277 278 280 278 276 277
9 5 0 352 350 347 340 332 324 318 309 301 294 287 279 274 270 269 269 269 269 269 269 270 270 270 270 271 272 274 274 275 274 271 270 271 274 277 277 277 275 273 272
8 1 357 355 357 350 342 337 333 326 317 308 301 294 287 282 278 276 274 272 271 270 271 272 272 272 272 272 273 274 275 276 275 272 271 272 274 276 277 275 272 270 270
0 352 348 347 351 349 342 335 330 325 318 310 304 298 292 287 283 280 277 274 273 272 272 273 273 273 273 272 273 274 276 277 277 273 273 275 276 276 274 272 270 269 269
357 351 346 348 348 347 344 340 335 328 323 317 311 305 299 294 289 284 280 278 276 274 273 272 272 272 272 272 273 275 276 277 276 274 274 275 275 273 272 271 272 272 272
359 353 348 346 343 340 338 338 337 335 333 328 321 313 307 303 298 293 288 284 281 277 275 273 273 273 273 273 274 274 275 277 276 274 273 273 274 275 275 275 275 275 275
357 357 353 348 344 339 339 339 339 338 338 334 330 324 319 314 310 303 298 293 287 282 278 276 275 275 274 273 274 274 275 275 274 273 272 274 276 277 278 278 278 278 278
350 352 356 353 346 343 342 343 342 339 339 337 334 330 326 322 318 312 307 300 294 288 284 281 279 277 276 276 275 274 275 276 276 275 275 275 276 277 278 279 280 280 280
344 343 348 347 342 344 345 345 343 336 335 335 333 329 327 325 322 317 310 303 298 294 291 287 282 279 278 277 276 277 278 279 279 279 279 279 278 279 279 279 280 280 280
324 327 331 335 334 336 337 336 335 333 329 331 330 327 327 325 321 318 313 307 302 297 293 290 285 281 279 278 278 278 278 279 280 281 281 281 281 281 281 281 281 281 281
315 318 316 323 322 322 323 324 326 327 326 324 324 321 318 319 318 314 312 308 302 296 291 288 285 282 281 279 279 278 279 281 282 282 282 282 283 283 283 283 283 282 281
307 310 313 311 312 311 310 312 315 316 316 316 315 312 311 312 315 311 307 307 304 297 291 285 282 281 281 281 281 281 282 283 283 283 283 284 284 284 284 284 284 283 282
305 305 310 308 308 308 307 306 308 308 307 307 307 307 308 309 309 309 304 304 303 299 293 287 283 282 282 283 283 283 284 285 285 285 285 285 285 285 285 284 284 283 283
301 302 309 309 306 308 307 305 305 302 301 301 302 303 304 305 305 304 303 299 299 297 292 286 281 280 282 283 284 284 285 286 286 286 286 286 286 286 285 285 284 283 283
299 302 303 306 306 308 307 305 303 300 297 297 298 298 298 299 300 300 299 296 295 294 291 286 282 279 280 281 283 285 286 287 287 287 287 287 287 287 287 286 284 284 283
297 302 303 302 302 301 300 299 298 296 294 294 294 293 293 294 296 297 294 295 294 293 291 288 285 283 283 282 283 284 286 286 288 289 288 288 288 288 287 286 285 284 284
296 299 299 301 299 297 295 294 292 290 292 291 291 291 292 293 294 295 293 292 292 292 291 288 286 285 284 284 285 286 287 288 288 289 289 288 288 287 287 286 285 285 284
292 294 296 295 295 296 295 291 288 287 289 291 290 290 291 292 294 295 295 293 291 291 290 288 288 287 287 287 287 287 288 288 288 288 289 288 287 287 287 286 286 285 284
289 291 292 291 292 293 290 287 286 287 289 290 289 289 290 291 293 295 296 295 295 293 292 291 290 289 289 288 289 289 289 289 289 289 288 289 289 289 288 287 287 286 285
286 287 287 288 289 289 286 286 290 292 290 290 290 290 290 292 294 295 295 295 295 294 293 292 292 291 290 290 290 290 291 291 291 290 289 288 289 289 289 288 287 286 284
283 283 284 285 286 285 286 288 293 294 291 290 290 291 292 293 293 294 294 294 293 293 293 293 292 291 291 291 291 291 292 292 293 292 291 290 289 289 289 289 287 286 285
Height
5903 5902 5902 5902 5902 5902 5902 5902 5902 5902 5902 5902 5903 5903 5904 5904 5904 5904 5904 5904 5904 5903 5903 5903 5902 5902 5902 5902 5902 5902 5902 5902 5902 5902 5901 5901 5901 5901 5900 5900 5900 5900 5900
5901 5900 5900 5900 5900 5900 5900 5900 5900 5900 5900 5900 5900 5900 5901 5901 5902 5902 5902 5901 5901 5901 5901 5900 5900 5900 5900 5899 5899 5899 5899 5899 5899 5899 5899 5899 5898 5898 5898 5897 5897 5897 5896
5900 5899 5899 5899 5899 5899 5898 5898 5898 5898 5898 5898 5898 5898 5898 5899 5899 5899 5899 5899 5899 5898 5898 5898 5898 5897 5897 5897 5896 5896 5896 5896 5896 5896 5896 5896 5895 5895 5894 5894 5894 5893 5893
5898 5898 5898 5898 5898 5898 5897 5897 5897 5897 5897 5897 5897 5897 5897 5897 5897 5897 5897 5897 5896 5896 5895 5895 5894 5894 5894 5894 5893 5893 5893 5893 5894 5893 5893 5892 5892 5891 5891 5891 5890 5890 5890
5897 5897 5897 5897 5897 5897 5897 5896 5896 5896 5896 5896 5895 5895 5895 5895 5895 5895 5894 5894 5894 5893 5893 5892 5892 5891 5891 5891 5890 5890 5890 5890 5891 5890 5889 5888 5888 5888 5888 5887 5887 5887 5886
5897 5896 5896 5896 5896 5896 5896 5895 5895 5895 5895 5895 5894 5894 5894 5893 5893 5893 5893 5892 5892 5891 5890 5890 5889 5889 5888 5888 5887 5886 5886 5887 5888 5887 5886 5885 5885 5884 5884 5884 5884 5883 5883
5896 5896 5895 5895 5895 5895 5895 5894 5894 5894 5894 5893 5893 5893 5893 5892 5892 5891 5891 5890 5890 5889 5888 5888 5887 5886 5886 5885 5884 5883 5883 5884 5885 5884 5883 5882 5882 5881 5881 5881 5880 5880 5879
5896 5895 5895 5895 5894 5894 5894 5894 5893 5893 5893 5893 5892 5892 5891 5891 5890 5890 5889 5888 5888 5887 5886 5885 5884 5884 5883 5882 5881 5879 5879 5881 5882 5881 5880 5879 5878 5878 5878 5877 5877 5876 5875
5895 5895 5894 5894 5893 5893 5893 5893 5892 5892 5892 5891 5891 5890 5890 5889 5888 5888 5887 5886 5885 5884 5883 5882 5881 5881 5880 5879 5877 5876 5876 5877 5878 5877 5876 5875 5875 5874 5874 5873 5872 5871 5870
5895 5895 5894 5893 5893 5892 5892 5892 5891 5891 5890 5890 5889 5888 5888 5887 5886 5885 5884 5883 5883 5882 5881 5880 5879 5878 5877 5875 5874 5873 5872 5873 5874 5873 5872 5871 5871 5870 5869 5868 5867 5866 5866
5895 5894 5893 5893 5892 5892 5891 5891 5890 5889 5889 5888 5887 5886 5885 5885 5884 5883 5882 5881 5880 5879 5878 5877 5876 5875 5873 5872 5871 5869 5869 5869 5870 5869 5868 5867 5866 5865 5864 5863 5862 5861 5861
5895 5894 5893 5892 5891 5891 5890 5889 5888 5888 5887 5886 5885 5884 5883 5882 5881 5880 5879 5878 5877 5876 5875 5874 5873 5872 5870 5869 5867 5866 5865 5865 5865 5865 5864 5863 5861 5860 5859 5858 5857 5856 5855
5894 5893 5892 5891 5891 5890 5889 5888 5887 5886 5885 5884 5883 5882 5881 5880 5878 5877 5877 5875 5874 5873 5872 5871 5870 5868 5867 5865 5864 5862 5861 5861 5860 5860 5859 5858 5856 5855 5854 5852 5851 5850 5849
5894 5893 5892 5890 5889 5888 5887 5886 5885 5884 5883 5882 5881 5880 5879 5877 5876 5875 5874 5873 5871 5870 5869 5868 5867 5865 5864 5862 5860 5859 5857 5856 5855 5854 5853 5852 5850 5849 5847 5846 5845 5843 5842
5893 5892 5891 5889 5887 5886 5885 5884 5883 5882 5880 5879 5879 5877 5876 5875 5873 5872 5870 5869 5868 5866 5865 5864 5863 5862 5860 5858 5857 5855 5853 5851 5849 5848 5846 5844 5843 5842 5840 5839 5837 5836 5834
5890 5890 5889 5887 5885 5884 5883 5881 5880 5879 5877 5876 5875 5874 5873 5872 5870 5868 5866 5865 5864 5862 5861 5860 5858 5857 5856 5854 5852 5850 5848 5845 5843 5841 5839 5837 5835 5833 5832 5830 5828 5826 5824
5886 5886 5885 5884 5882 5880 5879 5878 5877 5876 5874 5873 5871 5869 5868 5867 5865 5863 5861 5859 5858 5857 5855 5853 5851 5850 5849 5847 5845 5844 5842 5839 5836 5833 5831 5828 5826 5824 5822 5820 5818 5815 5813
5881 5881 5880 5879 5877 5875 5874 5873 5872 5871 5869 5868 5866 5864 5862 5860 5858 5856 5854 5852 5850 5849 5847 5845 5844 5842 5841 5839 5837 5836 5834 5831 5828 5825 5822 5819 5817 5814 5812 5809 5806 5803 5801
5877 5876 5874 5872 5870 5869 5866 5865 5864 5864 5863 5861 5859 5857 5855 5853 5851 5849 5847 5845 5843 5841 5840 5838 5836 5834 5832 5831 5829 5827 5824 5822 5818 5815 5812 5809 5805 5802 5799 5796 5793 5790 5787
5870 5869 5867 5867 5865 5862 5859 5858 5856 5855 5854 5853 5851 5849 5847 5846 5844 5842 5840 5838 5836 5833 5832 5830 5827 5825 5823 5822 5819 5817 5814 5811 5807 5804 5801 5797 5794 5790 5786 5782 5779 5776 5772
5863 5863 5862 5861 5859 5856 5853 5851 5849 5848 5846 5845 5844 5842 5840 5838 5836 5834 5832 5829 5827 5825 5823 5820 5818 5816 5813 5811 5809 5807 5804 5800 5797 5793 5789 5785 5781 5777 5772 5768 5764 5761 5757
5856 5856 5855 5854 5852 5849 5846 5844 5842 5840 5838 5837 5836 5834 5832 5830 5828 5825 5823 5820 5818 5816 5813 5811 5808 5805 5803 5800 5798 5796 5794 5791 5785 5781 5777 5772 5767 5763 5758 5754 5749 5745 5742
5850 5849 5848 5847 5844 5841 5838 5837 5834 5832 5831 5830 5828 5826 5824 5822 5820 5817 5814 5811 5809 5806 5804 5801 5798 5795 5792 5789 5787 5784 5781 5778 5774 5770 5764 5758 5753 5748 5744 5739 5734 5729 5725
5844 5842 5842 5840 5837 5834 5831 5828 5825 5822 5822 5822 5820 5818 5816 5813 5811 5808 5805 5801 5799 5796 5793 5790 5788 5785 5782 5778 5774 5771 5768 5764 5760 5757 5751 5744 5738 5733 5728 5722 5717 5711 5707
5837 5836 5835 5832 5829 5827 5823 5819 5816 5813 5814 5813 5812 5810 5807 5805 5802 5799 5795 5792 5789 5786 5782 5779 5776 5773 5770 5766 5762 5757 5753 5749 5744 5740 5737 5731 5724 5717 5711 5705 5699 5693 5688
5831 5829 5827 5824 5820 5817 5814 5811 5809 5808 5807 5806 5804 5802 5799 5796 5793 5790 5786 5782 5779 5775 5772 5768 5765 5761 5757 5753 5749 5744 5738 5733 5727 5722 5719 5714 5709 5702 5694 5687 5681 5674 5669